Year,Month,Day,Hour,Minute,Value (Times are PST for temperature in C)
2005,05,27,00,00,19.10
2005,05,27,00,01,19.10
2005,05,27,00,02,19.10
2005,05,27,00,03,19.10
2005,05,27,00,04,19.10
2005,05,27,00,05,19.10
2005,05,27,00,06,19.10
2005,05,27,00,07,19.10
2005,05,27,00,08,19.10
2005,05,27,00,09,19.10
2005,05,27,00,10,19.10
2005,05,27,00,11,19.10
2005,05,27,00,13,19.10
2005,05,27,00,14,19.10
2005,05,27,00,17,19.10
2005,05,27,00,18,19.10
2005,05,27,00,19,19.00
2005,05,27,00,23,18.90
2005,05,27,00,27,18.90
2005,05,27,00,29,18.80
2005,05,27,00,31,18.80
2005,05,27,00,32,18.80
2005,05,27,00,34,18.70
2005,05,27,00,35,18.70
2005,05,27,00,36,18.70
2005,05,27,00,37,18.70
2005,05,27,00,38,18.80
2005,05,27,00,39,18.80
2005,05,27,00,40,18.90
2005,05,27,00,41,18.90
2005,05,27,00,42,18.90
2005,05,27,00,43,18.90
2005,05,27,00,44,18.90
2005,05,27,00,45,18.90
2005,05,27,00,46,18.90
2005,05,27,00,47,18.90
2005,05,27,00,48,18.90
2005,05,27,00,49,18.90
2005,05,27,00,50,18.80
2005,05,27,00,51,18.70
2005,05,27,00,52,18.70
2005,05,27,00,53,18.70
2005,05,27,00,54,18.60
2005,05,27,00,55,18.60
2005,05,27,00,56,18.50
2005,05,27,00,57,18.40
2005,05,27,00,58,18.30
2005,05,27,00,59,18.30
2005,05,27,01,00,18.20
2005,05,27,01,01,18.20
2005,05,27,01,02,18.10
2005,05,27,01,03,18.10
2005,05,27,01,04,18.10
2005,05,27,01,05,17.90
2005,05,27,01,06,17.90
2005,05,27,01,07,17.90
2005,05,27,01,08,17.90
2005,05,27,01,09,17.90
2005,05,27,01,10,17.90
2005,05,27,01,11,18.00
2005,05,27,01,12,18.10
2005,05,27,01,13,18.10
2005,05,27,01,14,18.10
2005,05,27,01,15,18.10
2005,05,27,01,16,18.10
2005,05,27,01,17,18.20
2005,05,27,01,18,18.20
2005,05,27,01,19,18.20
2005,05,27,01,20,18.20
2005,05,27,01,21,18.20
2005,05,27,01,22,18.20
2005,05,27,01,23,18.20
2005,05,27,01,24,18.20
2005,05,27,01,25,18.20
2005,05,27,01,26,18.30
2005,05,27,01,27,18.30
2005,05,27,01,28,18.30
2005,05,27,01,29,18.30
2005,05,27,01,30,18.30
2005,05,27,01,31,18.30
2005,05,27,01,32,18.30
2005,05,27,01,33,18.30
2005,05,27,01,34,18.30
2005,05,27,01,35,18.30
2005,05,27,01,36,18.30
2005,05,27,01,37,18.20
2005,05,27,01,38,18.20
2005,05,27,01,39,18.20
2005,05,27,01,40,18.10
2005,05,27,01,41,18.10
2005,05,27,01,42,18.10
2005,05,27,01,43,18.10
2005,05,27,01,44,18.10
2005,05,27,01,45,17.90
2005,05,27,01,46,17.90
2005,05,27,01,47,17.90
2005,05,27,01,48,17.90
2005,05,27,01,49,17.90
2005,05,27,01,50,17.90
2005,05,27,01,51,17.80
2005,05,27,01,52,17.80
2005,05,27,01,53,17.80
2005,05,27,01,54,17.70
2005,05,27,01,55,17.70
2005,05,27,01,56,17.70
2005,05,27,01,57,17.70
2005,05,27,01,58,17.60
2005,05,27,01,59,17.60
2005,05,27,02,00,17.50
2005,05,27,02,01,17.50
2005,05,27,02,02,17.40
2005,05,27,02,03,17.40
2005,05,27,02,04,17.30
2005,05,27,02,05,17.30
2005,05,27,02,06,17.30
2005,05,27,02,07,17.30
2005,05,27,02,08,17.20
2005,05,27,02,09,17.20
2005,05,27,02,10,17.20
2005,05,27,02,11,17.20
2005,05,27,02,12,17.20
2005,05,27,02,13,17.20
2005,05,27,02,14,17.20
2005,05,27,02,15,17.20
2005,05,27,02,16,17.20
2005,05,27,02,17,17.20
2005,05,27,02,18,17.10
2005,05,27,02,19,17.20
2005,05,27,02,20,17.20
2005,05,27,02,21,17.20
2005,05,27,02,22,17.20
2005,05,27,02,23,17.20
2005,05,27,02,24,17.20
2005,05,27,02,25,17.10
2005,05,27,02,26,17.10
2005,05,27,02,27,17.10
2005,05,27,02,28,17.10
2005,05,27,02,29,17.10
2005,05,27,02,30,17.00
2005,05,27,02,31,16.90
2005,05,27,02,32,16.90
2005,05,27,02,33,16.90
2005,05,27,02,34,16.80
2005,05,27,02,35,16.80
2005,05,27,02,36,16.80
2005,05,27,02,37,16.70
2005,05,27,02,38,16.70
2005,05,27,02,39,16.70
2005,05,27,02,40,16.70
2005,05,27,02,41,16.80
2005,05,27,02,42,16.80
2005,05,27,02,43,16.80
2005,05,27,02,44,16.90
2005,05,27,02,45,16.90
2005,05,27,02,46,16.90
2005,05,27,02,47,16.90
2005,05,27,02,48,16.90
2005,05,27,02,49,16.90
2005,05,27,02,50,16.90
2005,05,27,02,51,16.90
2005,05,27,02,52,16.90
2005,05,27,02,53,16.90
2005,05,27,02,54,16.90
2005,05,27,02,55,16.90
2005,05,27,02,56,16.90
2005,05,27,02,57,16.90
2005,05,27,02,58,16.90
2005,05,27,02,59,16.90
2005,05,27,03,00,16.90
2005,05,27,03,01,16.90
2005,05,27,03,02,16.90
2005,05,27,03,03,16.80
2005,05,27,03,04,16.80
2005,05,27,03,05,16.80
2005,05,27,03,06,16.80
2005,05,27,03,07,16.80
2005,05,27,03,08,16.80
2005,05,27,03,09,16.80
2005,05,27,03,10,16.70
2005,05,27,03,11,16.70
2005,05,27,03,12,16.70
2005,05,27,03,13,16.70
2005,05,27,03,14,16.70
2005,05,27,03,15,16.70
2005,05,27,03,16,16.70
2005,05,27,03,17,16.70
2005,05,27,03,18,16.70
2005,05,27,03,19,16.70
2005,05,27,03,20,16.80
2005,05,27,03,21,16.70
2005,05,27,03,22,16.70
2005,05,27,03,23,16.70
2005,05,27,03,24,16.70
2005,05,27,03,25,16.70
2005,05,27,03,26,16.80
2005,05,27,03,27,16.70
2005,05,27,03,28,16.70
2005,05,27,03,29,16.70
2005,05,27,03,30,16.70
2005,05,27,03,31,16.70
2005,05,27,03,32,16.60
2005,05,27,03,33,16.60
2005,05,27,03,34,16.60
2005,05,27,03,35,16.50
2005,05,27,03,36,16.40
2005,05,27,03,37,16.40
2005,05,27,03,38,16.40
2005,05,27,03,39,16.40
2005,05,27,03,40,16.60
2005,05,27,03,41,16.70
2005,05,27,03,42,16.70
2005,05,27,03,43,16.70
2005,05,27,03,44,16.70
2005,05,27,03,45,16.70
2005,05,27,03,46,16.70
2005,05,27,03,47,16.70
2005,05,27,03,48,16.70
2005,05,27,03,49,16.70
2005,05,27,03,50,16.70
2005,05,27,03,51,16.70
2005,05,27,03,52,16.70
2005,05,27,03,53,16.70
2005,05,27,03,54,16.70
2005,05,27,03,55,16.70
2005,05,27,03,56,16.70
2005,05,27,03,57,16.70
2005,05,27,03,58,16.70
2005,05,27,03,59,16.70
2005,05,27,04,00,16.70
2005,05,27,04,01,16.70
2005,05,27,04,02,16.70
2005,05,27,04,03,16.70
2005,05,27,04,04,16.70
2005,05,27,04,05,16.70
2005,05,27,04,06,16.70
2005,05,27,04,07,16.70
2005,05,27,04,08,16.70
2005,05,27,04,09,16.70
2005,05,27,04,10,16.70
2005,05,27,04,11,16.70
2005,05,27,04,12,16.70
2005,05,27,04,13,16.70
2005,05,27,04,14,16.70
2005,05,27,04,15,16.70
2005,05,27,04,16,16.70
2005,05,27,04,17,16.70
2005,05,27,04,18,16.70
2005,05,27,04,19,16.60
2005,05,27,04,20,16.60
2005,05,27,04,21,16.60
2005,05,27,04,22,16.40
2005,05,27,04,23,16.40
2005,05,27,04,24,16.40
2005,05,27,04,25,16.40
2005,05,27,04,26,16.40
2005,05,27,04,27,16.40
2005,05,27,04,28,16.10
2005,05,27,04,29,16.10
2005,05,27,04,30,16.10
2005,05,27,04,31,16.10
2005,05,27,04,32,16.00
2005,05,27,04,33,15.90
2005,05,27,04,34,15.90
2005,05,27,04,35,15.80
2005,05,27,04,36,15.80
2005,05,27,04,37,15.90
2005,05,27,04,38,15.90
2005,05,27,04,39,15.90
2005,05,27,04,40,15.80
2005,05,27,04,41,15.80
2005,05,27,04,42,15.80
2005,05,27,04,43,15.80
2005,05,27,04,44,15.70
2005,05,27,04,45,15.70
2005,05,27,04,46,15.70
2005,05,27,04,47,15.70
2005,05,27,04,48,15.60
2005,05,27,04,49,15.60
2005,05,27,04,50,15.60
2005,05,27,04,51,15.60
2005,05,27,04,52,15.60
2005,05,27,04,53,15.60
2005,05,27,04,54,15.60
2005,05,27,04,55,15.60
2005,05,27,04,56,15.70
2005,05,27,04,57,15.80
2005,05,27,04,58,15.80
2005,05,27,04,59,15.90
2005,05,27,05,00,15.90
2005,05,27,05,01,15.90
2005,05,27,05,02,15.90
2005,05,27,05,03,16.00
2005,05,27,05,04,16.10
2005,05,27,05,05,16.10
2005,05,27,05,06,16.10
2005,05,27,05,07,16.10
2005,05,27,05,08,16.10
2005,05,27,05,09,16.10
2005,05,27,05,10,16.10
2005,05,27,05,11,16.10
2005,05,27,05,12,16.10
2005,05,27,05,13,16.10
2005,05,27,05,14,16.10
2005,05,27,05,15,16.10
2005,05,27,05,16,16.10
2005,05,27,05,17,16.10
2005,05,27,05,18,16.10
2005,05,27,05,19,16.10
2005,05,27,05,20,16.10
2005,05,27,05,21,16.10
2005,05,27,05,22,16.10
2005,05,27,05,23,16.10
2005,05,27,05,24,16.10
2005,05,27,05,25,16.10
2005,05,27,05,26,16.10
2005,05,27,05,27,16.10
2005,05,27,05,28,16.10
2005,05,27,05,29,16.10
2005,05,27,05,30,16.10
2005,05,27,05,31,16.10
2005,05,27,05,32,16.10
2005,05,27,05,33,16.10
2005,05,27,05,34,16.20
2005,05,27,05,35,16.20
2005,05,27,05,36,16.20
2005,05,27,05,37,16.20
2005,05,27,05,38,16.20
2005,05,27,05,39,16.20
2005,05,27,05,40,16.20
2005,05,27,05,41,16.20
2005,05,27,05,42,16.20
2005,05,27,05,43,16.30
2005,05,27,05,44,16.30
2005,05,27,05,45,16.40
2005,05,27,05,46,16.40
2005,05,27,05,47,16.40
2005,05,27,05,48,16.40
2005,05,27,05,49,16.40
2005,05,27,05,50,16.40
2005,05,27,05,51,16.40
2005,05,27,05,52,16.40
2005,05,27,05,53,16.40
2005,05,27,05,54,16.40
2005,05,27,05,55,16.30
2005,05,27,05,56,16.30
2005,05,27,05,57,16.30
2005,05,27,05,58,16.30
2005,05,27,05,59,16.30
2005,05,27,06,00,16.30
2005,05,27,06,01,16.30
2005,05,27,06,02,16.20
2005,05,27,06,03,16.20
2005,05,27,06,04,16.20
2005,05,27,06,05,16.20
2005,05,27,06,06,16.20
2005,05,27,06,07,16.10
2005,05,27,06,08,16.10
2005,05,27,06,09,16.10
2005,05,27,06,10,16.10
2005,05,27,06,11,16.10
2005,05,27,06,12,16.10
2005,05,27,06,13,16.10
2005,05,27,06,14,16.10
2005,05,27,06,15,16.10
2005,05,27,06,16,16.10
2005,05,27,06,17,16.10
2005,05,27,06,18,16.10
2005,05,27,06,19,16.10
2005,05,27,06,20,16.10
2005,05,27,06,21,16.10
2005,05,27,06,22,16.20
2005,05,27,06,23,16.20
2005,05,27,06,24,16.30
2005,05,27,06,25,16.30
2005,05,27,06,26,16.40
2005,05,27,06,27,16.40
2005,05,27,06,28,16.40
2005,05,27,06,29,16.40
2005,05,27,06,30,16.50
2005,05,27,06,31,16.60
2005,05,27,06,32,16.70
2005,05,27,06,33,16.70
2005,05,27,06,34,16.80
2005,05,27,06,35,16.90
2005,05,27,06,36,16.90
2005,05,27,06,37,17.00
2005,05,27,06,38,17.10
2005,05,27,06,39,17.20
2005,05,27,06,40,17.30
2005,05,27,06,41,17.30
2005,05,27,06,42,17.40
2005,05,27,06,43,17.40
2005,05,27,06,44,17.50
2005,05,27,06,45,17.50
2005,05,27,06,46,17.60
2005,05,27,06,47,17.60
2005,05,27,06,48,17.70
2005,05,27,06,49,17.70
2005,05,27,06,50,17.70
2005,05,27,06,51,17.80
2005,05,27,06,52,17.80
2005,05,27,06,53,17.90
2005,05,27,06,54,17.90
2005,05,27,06,55,17.90
2005,05,27,06,56,17.90
2005,05,27,06,57,17.90
2005,05,27,06,58,18.00
2005,05,27,06,59,18.10
2005,05,27,07,00,18.20
2005,05,27,07,01,18.20
2005,05,27,07,02,18.20
2005,05,27,07,03,18.30
2005,05,27,07,04,18.40
2005,05,27,07,05,18.40
2005,05,27,07,06,18.50
2005,05,27,07,07,18.50
2005,05,27,07,08,18.50
2005,05,27,07,09,18.70
2005,05,27,07,10,18.80
2005,05,27,07,11,18.80
2005,05,27,07,12,18.90
2005,05,27,07,13,18.90
2005,05,27,07,14,19.00
2005,05,27,07,15,19.10
2005,05,27,07,16,19.10
2005,05,27,07,17,19.10
2005,05,27,07,18,19.10
2005,05,27,07,19,19.20
2005,05,27,07,20,19.20
2005,05,27,07,21,19.30
2005,05,27,07,22,19.30
2005,05,27,07,23,19.30
2005,05,27,07,24,19.30
2005,05,27,07,25,19.40
2005,05,27,07,26,19.40
2005,05,27,07,27,19.40
2005,05,27,07,28,19.40
2005,05,27,07,29,19.50
2005,05,27,07,30,19.50
2005,05,27,07,31,19.50
2005,05,27,07,32,19.50
2005,05,27,07,33,19.50
2005,05,27,07,34,19.60
2005,05,27,07,35,19.60
2005,05,27,07,36,19.60
2005,05,27,07,37,19.60
2005,05,27,07,38,19.60
2005,05,27,07,39,19.70
2005,05,27,07,40,19.70
2005,05,27,07,41,19.70
2005,05,27,07,42,19.80
2005,05,27,07,43,19.80
2005,05,27,07,44,19.80
2005,05,27,07,45,19.90
2005,05,27,07,46,19.90
2005,05,27,07,47,19.90
2005,05,27,07,48,19.90
2005,05,27,07,49,19.90
2005,05,27,07,50,19.90
2005,05,27,07,51,19.90
2005,05,27,07,52,19.90
2005,05,27,07,53,19.90
2005,05,27,07,54,19.90
2005,05,27,07,55,19.90
2005,05,27,07,56,19.90
2005,05,27,07,57,19.90
2005,05,27,07,58,19.90
2005,05,27,07,59,20.00
2005,05,27,08,00,20.10
2005,05,27,08,01,20.10
2005,05,27,08,02,20.10
2005,05,27,08,03,20.10
2005,05,27,08,04,20.10
2005,05,27,08,05,20.10
2005,05,27,08,06,20.10
2005,05,27,08,07,20.10
2005,05,27,08,08,20.20
2005,05,27,08,09,20.20
2005,05,27,08,10,20.20
2005,05,27,08,11,20.20
2005,05,27,08,12,20.20
2005,05,27,08,13,20.20
2005,05,27,08,14,20.20
2005,05,27,08,15,20.20
2005,05,27,08,16,20.20
2005,05,27,08,17,20.20
2005,05,27,08,18,20.20
2005,05,27,08,19,20.20
2005,05,27,08,20,20.20
2005,05,27,08,21,20.20
2005,05,27,08,22,20.20
2005,05,27,08,23,20.20
2005,05,27,08,24,20.20
2005,05,27,08,25,20.20
2005,05,27,08,26,20.20
2005,05,27,08,27,20.20
2005,05,27,08,28,20.30
2005,05,27,08,29,20.40
2005,05,27,08,30,20.40
2005,05,27,08,31,20.50
2005,05,27,08,32,20.50
2005,05,27,08,33,20.60
2005,05,27,08,34,20.60
2005,05,27,08,35,20.60
2005,05,27,08,36,20.70
2005,05,27,08,37,20.80
2005,05,27,08,38,20.80
2005,05,27,08,39,20.80
2005,05,27,08,40,20.80
2005,05,27,08,41,20.80
2005,05,27,08,42,20.90
2005,05,27,08,43,20.90
2005,05,27,08,44,21.00
2005,05,27,08,45,21.00
2005,05,27,08,46,21.10
2005,05,27,08,47,21.20
2005,05,27,08,48,21.30
2005,05,27,08,49,21.30
2005,05,27,08,50,21.30
2005,05,27,08,51,21.30
2005,05,27,08,52,21.30
2005,05,27,08,53,21.30
2005,05,27,08,54,21.30
2005,05,27,08,55,21.40
2005,05,27,08,56,21.50
2005,05,27,08,57,21.60
2005,05,27,08,58,21.60
2005,05,27,08,59,21.60
2005,05,27,09,00,21.60
2005,05,27,09,01,21.60
2005,05,27,09,02,21.60
2005,05,27,09,03,21.70
2005,05,27,09,04,21.60
2005,05,27,09,05,21.60
2005,05,27,09,06,21.60
2005,05,27,09,07,21.60
2005,05,27,09,08,21.60
2005,05,27,09,09,21.70
2005,05,27,09,10,21.70
2005,05,27,09,11,21.80
2005,05,27,09,12,21.80
2005,05,27,09,13,21.90
2005,05,27,09,14,21.90
2005,05,27,09,15,21.90
2005,05,27,09,16,21.90
2005,05,27,09,17,21.80
2005,05,27,09,18,21.90
2005,05,27,09,19,21.90
2005,05,27,09,20,22.00
2005,05,27,09,21,22.10
2005,05,27,09,22,22.10
2005,05,27,09,23,22.20
2005,05,27,09,24,22.20
2005,05,27,09,25,22.20
2005,05,27,09,26,22.30
2005,05,27,09,27,22.30
2005,05,27,09,28,22.30
2005,05,27,09,29,22.40
2005,05,27,09,30,22.40
2005,05,27,09,31,22.40
2005,05,27,09,32,22.50
2005,05,27,09,33,22.50
2005,05,27,09,34,22.60
2005,05,27,09,35,22.50
2005,05,27,09,36,22.50
2005,05,27,09,37,22.50
2005,05,27,09,38,22.50
2005,05,27,09,39,22.50
2005,05,27,09,40,22.50
2005,05,27,09,41,22.50
2005,05,27,09,42,22.50
2005,05,27,09,43,22.50
2005,05,27,09,44,22.50
2005,05,27,09,45,22.40
2005,05,27,09,46,22.40
2005,05,27,09,47,22.50
2005,05,27,09,48,22.50
2005,05,27,09,49,22.60
2005,05,27,09,50,22.60
2005,05,27,09,51,22.70
2005,05,27,09,52,22.80
2005,05,27,09,53,22.80
2005,05,27,09,54,22.80
2005,05,27,09,55,22.70
2005,05,27,09,56,22.60
2005,05,27,09,57,22.60
2005,05,27,09,58,22.60
2005,05,27,09,59,22.70
2005,05,27,10,00,22.70
2005,05,27,10,01,22.70
2005,05,27,10,02,22.70
2005,05,27,10,03,22.70
2005,05,27,10,04,22.80
2005,05,27,10,05,22.80
2005,05,27,10,06,22.80
2005,05,27,10,07,22.80
2005,05,27,10,08,22.70
2005,05,27,10,09,22.60
2005,05,27,10,10,22.50
2005,05,27,10,11,22.40
2005,05,27,10,12,22.40
2005,05,27,10,13,22.40
2005,05,27,10,14,22.40
2005,05,27,10,15,22.50
2005,05,27,10,16,22.60
2005,05,27,10,17,22.80
2005,05,27,10,18,22.90
2005,05,27,10,19,22.90
2005,05,27,10,20,23.00
2005,05,27,10,21,23.10
2005,05,27,10,22,23.20
2005,05,27,10,23,23.30
2005,05,27,10,24,23.30
2005,05,27,10,25,23.30
2005,05,27,10,26,23.30
2005,05,27,10,27,23.30
2005,05,27,10,28,23.30
2005,05,27,10,29,23.30
2005,05,27,10,30,23.30
2005,05,27,10,31,23.30
2005,05,27,10,32,23.20
2005,05,27,10,33,23.20
2005,05,27,10,34,23.10
2005,05,27,10,35,23.00
2005,05,27,10,36,22.90
2005,05,27,10,37,22.90
2005,05,27,10,38,22.80
2005,05,27,10,39,22.80
2005,05,27,10,40,22.80
2005,05,27,10,41,22.80
2005,05,27,10,42,22.80
2005,05,27,10,43,22.90
2005,05,27,10,44,23.00
2005,05,27,10,45,23.20
2005,05,27,10,46,23.30
2005,05,27,10,47,23.40
2005,05,27,10,48,23.50
2005,05,27,10,49,23.60
2005,05,27,10,50,23.70
2005,05,27,10,51,23.70
2005,05,27,10,52,23.80
2005,05,27,10,53,23.80
2005,05,27,10,54,23.90
2005,05,27,10,55,23.90
2005,05,27,10,56,23.90
2005,05,27,10,57,23.80
2005,05,27,10,58,23.90
2005,05,27,10,59,23.90
2005,05,27,11,00,24.00
2005,05,27,11,01,24.10
2005,05,27,11,02,24.00
2005,05,27,11,03,23.90
2005,05,27,11,04,24.00
2005,05,27,11,05,24.10
2005,05,27,11,06,24.10
2005,05,27,11,07,23.90
2005,05,27,11,08,24.00
2005,05,27,11,09,24.10
2005,05,27,11,10,24.10
2005,05,27,11,11,24.00
2005,05,27,11,12,23.90
2005,05,27,11,13,23.70
2005,05,27,11,14,23.70
2005,05,27,11,15,23.70
2005,05,27,11,16,23.70
2005,05,27,11,17,23.80
2005,05,27,11,18,23.90
2005,05,27,11,19,23.90
2005,05,27,11,20,24.00
2005,05,27,11,21,24.10
2005,05,27,11,22,24.20
2005,05,27,11,23,24.20
2005,05,27,11,24,24.30
2005,05,27,11,25,24.30
2005,05,27,11,26,24.30
2005,05,27,11,27,24.40
2005,05,27,11,28,24.50
2005,05,27,11,29,24.50
2005,05,27,11,30,24.40
2005,05,27,11,31,24.30
2005,05,27,11,32,24.10
2005,05,27,11,33,24.10
2005,05,27,11,34,24.10
2005,05,27,11,35,24.10
2005,05,27,11,36,24.20
2005,05,27,11,37,24.30
2005,05,27,11,38,24.30
2005,05,27,11,39,24.30
2005,05,27,11,40,24.30
2005,05,27,11,41,24.30
2005,05,27,11,42,24.40
2005,05,27,11,43,24.50
2005,05,27,11,44,24.60
2005,05,27,11,45,24.70
2005,05,27,11,46,24.70
2005,05,27,11,47,24.70
2005,05,27,11,48,24.50
2005,05,27,11,49,24.50
2005,05,27,11,50,24.50
2005,05,27,11,51,24.40
2005,05,27,11,52,24.40
2005,05,27,11,53,24.30
2005,05,27,11,54,24.30
2005,05,27,11,55,24.30
2005,05,27,11,56,24.30
2005,05,27,11,57,24.40
2005,05,27,11,58,24.50
2005,05,27,11,59,24.60
2005,05,27,12,00,24.70
2005,05,27,12,01,24.80
2005,05,27,12,02,24.80
2005,05,27,12,03,24.90
2005,05,27,12,04,24.90
2005,05,27,12,05,25.00
2005,05,27,12,06,25.10
2005,05,27,12,07,25.10
2005,05,27,12,08,25.00
2005,05,27,12,09,24.80
2005,05,27,12,10,24.50
2005,05,27,12,11,24.40
2005,05,27,12,12,24.40
2005,05,27,12,13,24.30
2005,05,27,12,14,24.30
2005,05,27,12,15,24.20
2005,05,27,12,16,24.30
2005,05,27,12,17,24.30
2005,05,27,12,18,24.40
2005,05,27,12,19,24.70
2005,05,27,12,20,24.80
2005,05,27,12,21,24.80
2005,05,27,12,22,24.70
2005,05,27,12,23,24.70
2005,05,27,12,24,24.60
2005,05,27,12,25,24.70
2005,05,27,12,26,24.80
2005,05,27,12,27,24.80
2005,05,27,12,28,24.80
2005,05,27,12,29,24.70
2005,05,27,12,30,24.70
2005,05,27,12,31,24.60
2005,05,27,12,32,24.60
2005,05,27,12,33,24.60
2005,05,27,12,34,24.70
2005,05,27,12,35,24.80
2005,05,27,12,36,24.80
2005,05,27,12,37,24.90
2005,05,27,12,38,25.00
2005,05,27,12,39,25.00
2005,05,27,12,40,25.00
2005,05,27,12,41,24.90
2005,05,27,12,42,24.90
2005,05,27,12,43,24.90
2005,05,27,12,44,25.00
2005,05,27,12,45,25.10
2005,05,27,12,46,25.20
2005,05,27,12,47,25.20
2005,05,27,12,48,25.20
2005,05,27,12,49,25.10
2005,05,27,12,50,25.10
2005,05,27,12,51,25.00
2005,05,27,12,52,25.00
2005,05,27,12,53,24.90
2005,05,27,12,54,24.90
2005,05,27,12,55,24.90
2005,05,27,12,56,25.10
2005,05,27,12,57,25.20
2005,05,27,12,58,25.20
2005,05,27,12,59,25.20
2005,05,27,13,00,25.30
2005,05,27,13,01,25.40
2005,05,27,13,02,25.40
2005,05,27,13,03,25.40
2005,05,27,13,04,25.40
2005,05,27,13,05,25.40
2005,05,27,13,06,25.40
2005,05,27,13,07,25.90
2005,05,27,13,08,26.10
2005,05,27,13,09,26.10
2005,05,27,13,10,26.20
2005,05,27,13,11,26.20
2005,05,27,13,12,26.20
2005,05,27,13,13,26.20
2005,05,27,13,14,26.20
2005,05,27,13,15,26.30
2005,05,27,13,16,26.30
2005,05,27,13,17,26.40
2005,05,27,13,18,26.40
2005,05,27,13,19,26.50
2005,05,27,13,20,26.50
2005,05,27,13,21,26.40
2005,05,27,13,22,26.30
2005,05,27,13,23,26.30
2005,05,27,13,24,26.30
2005,05,27,13,25,26.30
2005,05,27,13,26,26.40
2005,05,27,13,27,26.30
2005,05,27,13,28,26.20
2005,05,27,13,29,26.00
2005,05,27,13,30,26.00
2005,05,27,13,31,26.10
2005,05,27,13,32,26.10
2005,05,27,13,33,26.10
2005,05,27,13,34,26.00
2005,05,27,13,35,26.00
2005,05,27,13,36,26.10
2005,05,27,13,37,26.10
2005,05,27,13,38,26.10
2005,05,27,13,39,26.20
2005,05,27,13,40,26.60
2005,05,27,13,41,26.60
2005,05,27,13,42,26.60
2005,05,27,13,43,26.70
2005,05,27,13,44,26.70
2005,05,27,13,45,26.70
2005,05,27,13,46,26.60
2005,05,27,13,47,26.60
2005,05,27,13,48,26.50
2005,05,27,13,49,26.30
2005,05,27,13,50,26.20
2005,05,27,13,51,26.20
2005,05,27,13,52,26.30
2005,05,27,13,53,26.40
2005,05,27,13,54,26.40
2005,05,27,13,55,26.40
2005,05,27,13,56,26.50
2005,05,27,13,57,26.60
2005,05,27,13,58,26.60
2005,05,27,13,59,26.60
2005,05,27,14,00,26.60
2005,05,27,14,01,26.70
2005,05,27,14,02,26.80
2005,05,27,14,03,26.90
2005,05,27,14,04,26.90
2005,05,27,14,05,27.10
2005,05,27,14,06,27.10
2005,05,27,14,07,27.00
2005,05,27,14,08,26.90
2005,05,27,14,09,26.80
2005,05,27,14,10,26.90
2005,05,27,14,11,26.90
2005,05,27,14,12,26.90
2005,05,27,14,13,27.00
2005,05,27,14,14,27.10
2005,05,27,14,15,27.00
2005,05,27,14,16,26.80
2005,05,27,14,17,26.70
2005,05,27,14,18,26.60
2005,05,27,14,19,26.60
2005,05,27,14,20,26.60
2005,05,27,14,21,26.60
2005,05,27,14,22,26.60
2005,05,27,14,23,26.80
2005,05,27,14,24,26.90
2005,05,27,14,25,27.10
2005,05,27,14,26,27.20
2005,05,27,14,27,27.30
2005,05,27,14,28,27.30
2005,05,27,14,29,27.30
2005,05,27,14,30,27.40
2005,05,27,14,31,27.30
2005,05,27,14,32,27.30
2005,05,27,14,33,27.30
2005,05,27,14,34,27.30
2005,05,27,14,35,27.20
2005,05,27,14,36,27.00
2005,05,27,14,37,26.90
2005,05,27,14,38,26.90
2005,05,27,14,39,26.90
2005,05,27,14,40,27.00
2005,05,27,14,41,27.10
2005,05,27,14,42,27.10
2005,05,27,14,43,27.10
2005,05,27,14,44,27.10
2005,05,27,14,45,27.10
2005,05,27,14,46,27.10
2005,05,27,14,47,27.10
2005,05,27,14,48,27.70
2005,05,27,14,49,27.90
2005,05,27,14,50,28.00
2005,05,27,14,51,28.00
2005,05,27,14,52,28.00
2005,05,27,14,53,28.10
2005,05,27,14,54,28.10
2005,05,27,14,55,28.20
2005,05,27,14,56,28.30
2005,05,27,14,57,28.30
2005,05,27,14,58,28.30
2005,05,27,14,59,28.30
2005,05,27,15,00,28.30
2005,05,27,15,01,28.30
2005,05,27,15,02,28.40
2005,05,27,15,03,28.40
2005,05,27,15,04,28.30
2005,05,27,15,05,28.30
2005,05,27,15,06,28.30
2005,05,27,15,07,28.40
2005,05,27,15,08,28.40
2005,05,27,15,09,28.40
2005,05,27,15,10,28.40
2005,05,27,15,11,28.40
2005,05,27,15,12,28.40
2005,05,27,15,13,28.20
2005,05,27,15,14,28.10
2005,05,27,15,15,28.10
2005,05,27,15,16,28.10
2005,05,27,15,17,28.20
2005,05,27,15,18,28.20
2005,05,27,15,19,28.30
2005,05,27,15,20,28.50
2005,05,27,15,21,28.60
2005,05,27,15,22,28.70
2005,05,27,15,23,28.80
2005,05,27,15,24,28.90
2005,05,27,15,25,28.90
2005,05,27,15,26,28.90
2005,05,27,15,27,28.90
2005,05,27,15,28,28.90
2005,05,27,15,29,28.90
2005,05,27,15,30,28.90
2005,05,27,15,31,28.90
2005,05,27,15,32,28.90
2005,05,27,15,33,28.90
2005,05,27,15,34,28.80
2005,05,27,15,35,28.70
2005,05,27,15,36,28.60
2005,05,27,15,37,28.50
2005,05,27,15,38,28.30
2005,05,27,15,39,28.20
2005,05,27,15,40,28.20
2005,05,27,15,41,28.30
2005,05,27,15,42,28.40
2005,05,27,15,43,28.40
2005,05,27,15,44,28.60
2005,05,27,15,45,28.60
2005,05,27,15,46,28.70
2005,05,27,15,47,28.70
2005,05,27,15,48,28.70
2005,05,27,15,49,28.70
2005,05,27,15,50,28.70
2005,05,27,15,51,28.80
2005,05,27,15,52,28.90
2005,05,27,15,53,28.90
2005,05,27,15,54,28.90
2005,05,27,15,55,28.90
2005,05,27,15,56,28.90
2005,05,27,15,57,28.90
2005,05,27,15,58,29.10
2005,05,27,15,59,29.20
2005,05,27,16,00,29.30
2005,05,27,16,01,29.40
2005,05,27,16,02,29.40
2005,05,27,16,03,29.40
2005,05,27,16,04,29.40
2005,05,27,16,05,29.50
2005,05,27,16,06,29.50
2005,05,27,16,07,29.50
2005,05,27,16,08,29.60
2005,05,27,16,09,29.60
2005,05,27,16,10,29.70
2005,05,27,16,11,29.70
2005,05,27,16,12,29.70
2005,05,27,16,13,29.70
2005,05,27,16,14,29.70
2005,05,27,16,15,29.70
2005,05,27,16,16,29.70
2005,05,27,16,17,29.70
2005,05,27,16,18,29.80
2005,05,27,16,19,29.80
2005,05,27,16,20,29.70
2005,05,27,16,21,29.80
2005,05,27,16,22,29.80
2005,05,27,16,23,29.80
2005,05,27,16,24,29.70
2005,05,27,16,25,29.70
2005,05,27,16,26,29.70
2005,05,27,16,27,29.60
2005,05,27,16,28,29.50
2005,05,27,16,29,29.50
2005,05,27,16,30,29.40
2005,05,27,16,31,29.30
2005,05,27,16,32,29.30
2005,05,27,16,33,29.30
2005,05,27,16,34,29.40
2005,05,27,16,35,29.50
2005,05,27,16,36,29.60
2005,05,27,16,37,29.60
2005,05,27,16,38,29.60
2005,05,27,16,39,29.60
2005,05,27,16,40,29.50
2005,05,27,16,41,29.40
2005,05,27,16,42,29.50
2005,05,27,16,43,29.60
2005,05,27,16,44,29.60
2005,05,27,16,45,29.60
2005,05,27,16,46,29.60
2005,05,27,16,47,29.50
2005,05,27,16,48,29.40
2005,05,27,16,49,29.40
2005,05,27,16,50,29.50
2005,05,27,16,51,29.50
2005,05,27,16,52,29.60
2005,05,27,16,53,29.60
2005,05,27,16,54,29.60
2005,05,27,16,55,29.70
2005,05,27,16,56,29.70
2005,05,27,16,57,29.70
2005,05,27,16,58,29.60
2005,05,27,16,59,29.60
2005,05,27,17,00,29.70
2005,05,27,17,01,29.80
2005,05,27,17,02,29.80
2005,05,27,17,03,29.80
2005,05,27,17,04,29.80
2005,05,27,17,05,29.80
2005,05,27,17,06,29.80
2005,05,27,17,07,29.70
2005,05,27,17,08,29.70
2005,05,27,17,09,29.60
2005,05,27,17,10,29.50
2005,05,27,17,11,29.40
2005,05,27,17,12,29.30
2005,05,27,17,13,29.30
2005,05,27,17,14,29.30
2005,05,27,17,15,29.30
2005,05,27,17,16,29.40
2005,05,27,17,17,29.40
2005,05,27,17,18,29.50
2005,05,27,17,19,29.60
2005,05,27,17,20,29.70
2005,05,27,17,21,29.80
2005,05,27,17,22,29.90
2005,05,27,17,23,29.90
2005,05,27,17,24,29.90
2005,05,27,17,25,29.90
2005,05,27,17,26,29.90
2005,05,27,17,27,29.90
2005,05,27,17,28,29.90
2005,05,27,17,29,29.70
2005,05,27,17,30,29.40
2005,05,27,17,31,29.10